Location: Pasadena, ca
(34.1243°N, 118.1037°W)
Time: 00:52:03
(UTC-07:00)

Tiangong 2 - Pass Details

Date: 08 October 2017
Orbit: 388 x 392 km, 42.8° (Epoch: 16 October)

Event Time Altitude Azimuth Distance (km) Brightness Sun altitude
Exits shadow 05:55:27 23° 260° (W) 888 2.3 -12.6°
Maximum altitude 05:57:15 60° 334° (NNW) 452 1.2 -12.2°
Drops below altitude 10° 06:00:25 10° 55° (NE) 1,423 4.8 -11.6°
Sets 06:02:32 0° 59° (ENE) 2,281 6.1 -11.1°
